Montana Department of Transportation

Main Content

Accidents and Incidents Report

Hourly Weather Roundup

ASUS45 KTFX 160410

RWRMT 

MONTANA REGIONAL WEATHER ROUNDUP

NATIONAL WEATHER SERVICE GREAT FALLS MT

900 PM MST TUE JAN 15 2019



NOTE: "FAIR" INDICATES FEW OR NO CLOUDS BELOW 12000 FEET WITH NO

SIGNIFICANT WEATHER AND/OR OBSTRUCTIONS TO VISIBILITY.



MTZ001.007-043-160500-

WEST OF THE DIVIDE

  

CITY           SKY/WX    TMP DP  RH WIND       PRES   REMARKS

KALISPELL      CLOUDY    19  14  81 NE3       30.05S                  

MISSOULA       CLOUDY    16   9  74 CALM      30.05F                  

BUTTE          FAIR      12   7  80 CALM      29.94S                  

MULLAN PASS    CLOUDY    24   9  52 S5        29.86S                  

ANACONDA         N/A     21  14  73 SW5       29.94S                  

DEER LODGE       N/A     14  12  92 CALM      29.97S                  

LIBBY            N/A     19  16  86 MISG      30.06S                  

RONAN            N/A     21  18  86 N5        30.02F                  

--------------------------------



MTZ008-052.055-160500-

SOUTHWEST MONTANA

  

CITY           SKY/WX    TMP DP  RH WIND       PRES   REMARKS

BOZEMAN        FAIR      13   8  81 S6        29.99S WCI   4          

DILLON         FAIR      18  13  80 SE6       29.96S WCI  10          

ENNIS          CLOUDY    34  25  69 S17G23    29.99F WCI  23          

W YELLOWSTONE  LGT SNOW  18  16  93 CALM      30.00S                  

THREE FORKS      N/A     12   7  81 CALM      29.97F                  

--------------------------------



MTZ009-010-012-014-046-048-049-054-160500-

EAST SLOPES AND CENTRAL MONTANA

  

CITY           SKY/WX    TMP DP  RH WIND       PRES   REMARKS

CUT BANK       FAIR      15  14  95 E3        29.91F                  

GREAT FALLS    MOCLDY    23  17  78 SW3       29.91F                  

MALMSTROM AFB  CLOUDY    20  15  80 CALM      29.92F                  

HELENA         MOCLDY    22  13  68 CALM      29.97F                  

AUGUSTA        MOCLDY    24  12  58 S5        29.88F                  

BOWMANS CRNR   CLOUDY    28  21  76 S16       29.87F WCI  16          

CHOTEAU          N/A     23  14  68 SE5       29.89F                  

FAIRFIELD      MOCLDY    25  14  62 SE6       29.90F WCI  18          

POWER          MOCLDY    19  15  82 SE6       29.90F WCI  11          

RAYNESFORD     CLOUDY    28  17  63 NE7       29.92S WCI  21          

WHITE SULPHUR    N/A     23  14  68 S8        29.92F WCI  14          

--------------------------------



MTZ011-013-016-021-045-047-050-051-160500-

NORTH CENTRAL MONTANA

  

CITY           SKY/WX    TMP DP  RH WIND       PRES   REMARKS

HAVRE          FAIR      21  19  92 E15       29.99F WCI   8          

LEWISTOWN      CLOUDY    28  21  75 E10       29.93F WCI  19          

N BAR RANCH    MOCLDY    27  21  80 NE3       29.98F                  

CHINOOK          N/A     21  19  93 E12       30.04S WCI   9          

GRASS RANGE    CLOUDY    21  20  96 W3        29.94F                  

JUDITH GAP     MOCLDY    23  16  75 S12       29.94F WCI  11          

ROY            MOCLDY    21  18  86 SE13      29.95F WCI   9          

STANFORD       MOCLDY    31  15  50 S6        29.91F WCI  26          

WINIFRED         N/A     19  18  95 E13       29.95S WCI   6          

--------------------------------



MTZ017.020-022.027-061-062-160500-

NORTHEAST MONTANA

  

CITY           SKY/WX    TMP DP  RH WIND       PRES   REMARKS

GLASGOW        CLOUDY    24  20  84 E14       30.10F WCI  12          

GLENDIVE       CLOUDY    23  21  92 NE8       30.13F WCI  14          

JORDAN           N/A     24  19  81 SE10      30.08F WCI  14          

MALTA          CLOUDY    27  21  80 SE10      30.07F WCI  17          

SIDNEY         CLOUDY    20  16  84 NE8       30.19S WCI  10          

WOLF POINT     CLOUDY    21  17  84 E14       30.17S WCI   8          

POPLAR           N/A     19  16  86 E13       30.18S WCI   7          

--------------------------------



MTZ028.42-056.058-160500-

SOUTHCENTRAL AND SOUTHEAST MONTANA

  

CITY           SKY/WX    TMP DP  RH WIND       PRES   REMARKSBAKER          CLOUDY    24  21  88 SE12      30.10F WCI  13          

BILLINGS       FAIR      28  23  81 N3        29.98F                  

LIVINGSTON     FAIR      20  11  68 N6        29.95S WCI  12          

MILES CITY     CLOUDY    22  20  92 E6        30.08F WCI  14          

BIG TIMBER     CLEAR     25  12  58 CALM      29.97F                  

FORSYTH          N/A     21  19  93 E7        30.08F WCI  13          

HARLOWTON      FAIR      25  10  52 CALM      29.97F                  

ROUNDUP          N/A     27  18  69 NE1       29.91F                  

--------------------------------



REGIONAL REPORTS...DAKOTAS

  

CITY           SKY/WX    TMP DP  RH WIND       PRES   REMARKS

WILLISTON      CLOUDY    14   7  73 N5        30.21S                  

MINOT          FAIR       0  -5  79 N3        30.28S                  

DICKINSON      CLOUDY    21  17  84 E10       30.13S WCI  10          

BEACH          CLOUDY    23  21  93 E8        30.12F WCI  14          

CROSBY         MOCLDY     3   1  92 E8        30.24S WCI -10          

TIOGA          CLOUDY     7   5  92 E14       30.21S WCI -10          

WATFORD CITY   CLOUDY    18  14  86 E9        30.19S WCI   6          

BISMARCK       CLOUDY    15   9  76 NE10      30.26R WCI   2          

GRAND FORKS    FAIR      -2  -8  76 N12       30.37R WCI -20          

FARGO          CLOUDY     1  -3  83 N14       30.33R WCI -17          

BUFFALO SD       N/A     25  20  81 E9        30.09R WCI  15          

RAPID CITY     FOG       25  23  92 E8        30.12S VSB 3/4 WCI  16  

--------------------------------



REGIONAL REPORTS...WYOMING/IDAHO/WASHINGTON

  

CITY           SKY/WX    TMP DP  RH WIND       PRES   REMARKS

GILLETTE       FAIR      23  18  81 CALM      29.98F                  

SHERIDAN       FAIR      21  15  78 CALM      29.98F                  

BUFFALO WY     FAIR      22  13  68 NW6       29.94F WCI  14          

CODY           FAIR      17  12  80 VRB3      29.98F                  

YELLOWSTONE LA   N/A     17  14  88 CALM      30.03S                  

IDAHO FALLS    CLOUDY    21  17  84 N8        30.04F WCI  11          

SALMON         CLOUDY    10   6  84 SE3       30.08S                  

BOISE          CLOUDY    30  27  88 CALM      29.98F FOG              

SPOKANE        CLOUDY    28  20  71 NE6       29.94F WCI  22          

--------------------------------



REGIONAL REPORTS...ALBERTA

  

CITY           SKY/WX    TMP DP  RH WIND       PRES   REMARKS

CALGARY        FOG       21  19  93 SE13      29.93F VSB 1/4 WCI   9  

EDMONTON       CLOUDY    10   9  92 E7        30.07S WCI   0          

FORT MCMURRAY  CLEAR    -11 -17  77 E8        30.30F WCI -28          

HIGH LEVEL     FLURRIES -11 -17  77 N7        30.32S WCI -26          

LETHBRIDGE     MOCLDY    16  14  93 NE6       29.94S FOG     WCI   7  

LLOYDMINSTER   CLOUDY    -2  -6  84 SE6       30.14R WCI -14          

MEDICINE HAT   CLOUDY    18  16  93 E14       30.00F WCI   4          

PEACE RIVER    FLURRIES   7   3  85 NE13      30.11S WCI  -9          

PINCHER CREEK  MOCLDY    18  16  93 SE7       29.89F FOG     WCI   8  

--------------------------------



REGIONAL REPORTS...SASKATCHEWAN

  

CITY           SKY/WX    TMP DP  RH WIND       PRES   REMARKS

ESTEVAN        PTCLDY    -2  -8  78 E9        30.25S WCI -18          

PRINCE ALBERT  CLEAR    -18 -24  76 E6        30.34F WCI -33          

REGINA         MOCLDY    -2  -8  78 E9        30.23F WCI -18          

ROCKGLEN         N/A     16  12  86 SE6         N/A  WCI   7          

SASKATOON      PTCLDY    -8 -13  77 E9        30.26F WCI -25          

SWIFT CURRENT  CLOUDY    14  12  92 SE9       30.07S FOG     WCI   2  

--------------------------------